AO-07 1 07530U 74089B 17251.86875028 -.00000036 00000-0 54067-4 0 9999 2 07530 101.6399 218.9331 0012048 158.0701 256.0377 12.53628608959341 UO-11 1 14781U 84021B 17251.36586319 .00000335 00000-0 47565-4 0 9995 2 14781 097.6895 293.9806 0007090 290.7444 069.3010 14.82926521781678 LO-19 1 20442U 90005G 17251.38168139 .00000028 00000-0 26557-4 0 9990 2 20442 098.5786 187.0646 0010592 261.9144 098.0838 14.32868992443473 HUBBLE 1 20580U 90037B 17251.54033566 .00001190 00000-0 62573-4 0 9990 2 20580 028.4691 176.7146 0002615 353.9787 344.1846 15.08840174302884 MET-2/21 1 22782U 93055A 17251.61625399 -.00000019 00000-0 -30447-4 0 9994 2 22782 082.5500 317.3803 0022129 193.7765 276.3333 13.83802543212966 AO-27 1 22825U 93061C 17251.45658639 .00000016 00000-0 24006-4 0 9993 2 22825 098.8212 218.0996 0009541 088.4192 271.8082 14.30005120249039 AO-27 1 22825U 93061C 17251.87640328 .00000015 00000-0 23660-4 0 9999 2 22825 98.8212 218.5250 0009540 87.3567 272.8706 14.30005157249360 IO-26 1 22826U 93061D 17251.88822461 .00000038 00000-0 32201-4 0 9997 2 22826 98.8154 218.6090 0010052 78.5136 281.7175 14.30334745249540 FO-29 1 24278U 96046B 17251.57472773 .00000009 00000-0 42101-4 0 9997 2 24278 098.5498 123.6899 0351189 121.2302 242.3750 13.53077977039907 NOAA-15 1 25338U 98030A 17251.58330658 .00000058 00000-0 43261-4 0 9998 2 25338 098.7818 262.6588 0009936 330.2706 029.7908 14.25815007004630 GO-32 1 25397U 98043D 17251.41000997 .00000013 00000-0 24530-4 0 9998 2 25397 098.6147 192.0129 0002327 103.2878 256.8560 14.23627898995410 ISS 1 25544U 98067A 17251.58258524 .00007637 00000-0 12252-3 0 9993 2 25544 051.6440 342.5904 0003895 243.9211 223.8431 15.54120858074728 NO-44 1 26931U 01043C 17251.58984656 .00000009 00000-0 35239-4 0 9991 2 26931 067.0496 236.0030 0006679 257.1469 102.8886 14.30472517832203 SO-50 1 27607U 02058C 17251.37796410 .00000274 00000-0 60393-4 0 9998 2 27607 064.5542 231.3403 0032320 054.5279 305.8832 14.75357180791252 SO-50 1 27607U 02058C 17251.71688291 .00000268 00000-0 59443-4 0 9990 2 27607 64.5543 230.3046 0032345 54.3764 306.0343 14.75357383791434 CO-55 1 27844U 03031E 17251.59349028 .00000117 00000-0 72442-4 0 9990 2 27844 098.6904 259.3886 0010908 104.5242 255.7146 14.22057718736137 CO-57 1 27848U 03031J 17251.54553373 .00000079 00000-0 55899-4 0 9993 2 27848 098.6997 259.6349 0010748 113.3296 246.9013 14.21669750736015 RS-22 1 27939U 03042A 17251.90062480 .00000258 00000-0 54921-4 0 9994 2 27939 97.9514 34.0000 0012112 325.7628 150.8803 14.66596061745582 NOAA-18 1 28654U 05018A 17251.57881275 .00000046 00000-0 50246-4 0 9999 2 28654 099.1787 275.8150 0014116 194.0068 166.0713 14.12348093633930 CO-58 1 28895U 05043F 17251.38506513 .00000395 00000-0 84929-4 0 9994 2 28895 097.8746 049.8882 0015689 237.9398 122.0282 14.63431875632420 Falconsat-3 1 30776U 07006E 17251.48779263 .00007537 00000-0 23388-3 0 9997 2 30776 035.4348 257.9958 0002884 337.1937 022.8660 15.32728085581045 CO-65 1 32785U 08021C 17251.49795905 .00000713 00000-0 83347-4 0 9990 2 32785 097.5633 271.9520 0011639 250.0957 109.9006 14.87942522507218 AAUSAT2 1 32788U 08021F 17251.62353438 .00001462 00000-0 14224-3 0 9998 2 32788 97.5530 284.4403 0011311 204.6067 155.4616 14.93975506508130 DO-64 1 32789U 08021G 17251.46657655 .00004735 00000-0 33612-3 0 9997 2 32789 097.5510 307.9221 0013138 171.0298 189.1165 15.05135419509296 CO-66 1 32791U 08021J 17251.77123462 .00001000 00000-0 10832-3 0 9999 2 32791 97.5590 276.8327 0012218 231.0259 128.9872 14.90298758507596 RS-30 1 32953U 08025A 17251.58504096 .00000032 00000-0 15890-3 0 9991 2 32953 082.5057 187.7974 0020118 101.3523 258.9818 12.43079022421784 PRISM 1 33493U 09002B 17251.65262533 .00001720 00000-0 15950-3 0 9994 2 33493 98.1567 137.5611 0015502 160.8922 199.2887 14.95793837468250 NOAA-19 1 33591U 09005A 17251.58948185 .00000103 00000-0 81105-4 0 9992 2 33591 099.1015 219.6361 0014752 040.9475 319.2801 14.12209175442167 TISAT-1 1 36799U 10035E 17251.32520951 .00001277 00000-0 13671-3 0 9994 2 36799 98.0715 15.7849 0013520 58.0623 302.1907 14.90482617388165 JUGNU 1 37839U 11058B 17251.36130707 .00000346 00000-0 42548-4 0 9998 2 37839 019.9617 306.1580 0019112 020.6886 065.6066 14.12591864305369 SRMSAT 1 37841U 11058D 17251.39758319 .00000347 00000-0 45430-4 0 9993 2 37841 019.9730 349.3316 0011714 275.7371 150.6150 14.10582462305042 AO-71 1 37854U 11061E 17251.72982398 .00003909 00000-0 21381-3 0 9999 2 37854 101.6918 167.8298 0166746 187.6166 172.2509 15.04340537319495 HRBE 1 37855U 11061F 17251.59751205 .00003416 00000-0 18449-3 0 9990 2 37855 101.7042 165.3830 0179898 195.0156 164.5673 15.03307542318857 HRBE 1 37855U 11061F 17251.73062738 .00003463 00000-0 18689-3 0 9990 2 37855 101.7042 165.5836 0179899 194.6249 164.9717 15.03308431319340 ALMASAT-1 1 38078U 12006B 17251.60755623 .00043125 40166-5 45692-3 0 9991 2 38078 069.4332 267.3746 0296780 168.4264 192.3942 15.25513451297496 HORYU-2 1 38340U 12025D 17251.50666217 .00000658 00000-0 10503-3 0 9998 2 38340 098.3781 258.3716 0012358 032.8298 327.3676 14.75388002275162 RS-40 1 38735U 12041C 17251.86750967 .00000007 00000-0 -20338-4 0 9996 2 38735 82.4718 272.0068 0016360 202.2457 157.7914 12.42575075232088 BEESAT-3 1 39134U 13015E 17251.56117256 .00005594 00000-0 27742-3 0 9997 2 39134 064.8655 317.2911 0039474 250.4187 109.2675 15.18078092241754 BEESAT-2 1 39136U 13015G 17251.60455554 .00004276 00000-0 23301-3 0 9993 2 39136 064.8725 329.0222 0034110 271.4974 088.2243 15.15306199241520 ZACUBE-1 1 39417U 13066B 17251.61619542 .00000660 00000-0 89848-4 0 9993 2 39417 097.6225 289.7813 0059164 358.5829 001.5207 14.80760017205129 TRITON-1 1 39427U 13066M 17251.58130596 .00000620 00000-0 10661-3 0 9999 2 39427 097.6375 261.3493 0115841 081.7669 279.6655 14.67502410203082 GOMX-1 1 39430U 13066Q 17251.84784245 .00000483 00000-0 96230-4 0 9992 2 39430 97.6699 244.5283 0152816 138.4011 222.8936 14.58910985202136 LO-74 1 39440U 13066AA 17251.86250847 .00000685 00000-0 10247-3 0 9998 2 39440 97.6239 278.5432 0081416 29.9123 330.6703 14.75500661204435 AO-73 1 39444U 13066AE 17251.35171944 .00000823 00000-0 10849-3 0 9998 2 39444 097.6241 290.6907 0058250 355.9159 004.1571 14.81503368203333 SPROUT 1 39770U 14029E 17251.50943800 .00002598 00000-0 30054-3 0 9996 2 39770 097.8759 350.0803 0010444 061.9007 298.3255 14.86367118178519 SPROUT 1 39770U 14029E 17251.84603444 .00002533 00000-0 29315-3 0 9997 2 39770 97.8760 350.4138 0010461 61.6090 298.6166 14.86368662178568 DUCHIFAT-1 1 40021U 14033M 17251.30673211 .00001479 00000-0 15913-3 0 9990 2 40021 097.9135 164.5762 0014021 032.6876 327.5206 14.89975460174970 NANOSATCBR1 1 40024U 14033Q 17251.48106494 .00001166 00000-0 12884-3 0 9993 2 40024 097.9089 163.5052 0013314 033.8744 326.3321 14.89289676174425 EO-79 1 40025U 14033R 17251.57259540 .00001018 00000-0 11551-3 0 9991 2 40025 097.9066 162.5128 0013506 036.4483 323.7650 14.88481174174383 DTUSAT-2 1 40030U 14033W 17251.53172422 .00000900 00000-0 10381-3 0 9995 2 40030 097.9030 161.4987 0012875 031.8558 328.3435 14.88101257174339 EO-80 1 40032U 14033Y 17251.57758552 .00000941 00000-0 10838-3 0 9997 2 40032 097.9037 161.5498 0012798 032.0671 328.1322 14.88036532174324 ANTELSAT 1 40034U 14033AA 17251.66106462 .00000693 00000-0 11075-3 0 9994 2 40034 97.8468 132.9546 0059843 25.6501 334.7655 14.73745007173229 VELOX-1 1 40057U 14034E 17251.48122090 .00000823 00000-0 12372-3 0 9991 2 40057 098.1939 352.9717 0012233 145.6389 214.5623 14.77185391172052 DAURIA DX 1 1 40071U 14037C 17251.50197457 .00000533 00000-0 76064-4 0 9999 2 40071 098.3459 005.9142 0009685 139.6979 220.4945 14.81048309171301 UKUBE-1 1 40074U 14037F 17251.52329828 .00000174 00000-0 28311-4 0 9996 2 40074 098.3551 010.2249 0005761 132.2205 227.9528 14.83561145171530 HODOYOSHI-1 1 40299U 14070B 17251.80555848 .00001731 00000-0 77783-4 0 9993 2 40299 97.4005 333.2695 0014110 152.2602 321.7036 15.22396769157664 CHUBUSAT-1 1 40300U 14070C 17251.78163997 .00002811 00000-0 12914-3 0 9997 2 40300 97.3919 330.1356 0021155 164.2591 312.0048 15.21011594157493 QSAT-EOS 1 40301U 14070D 17251.49588156 .00005505 00000-0 23103-3 0 9999 2 40301 097.3858 330.1403 0028151 161.2343 319.8289 15.23517299157514 FIREBIRD FU3 1 40377U 15003B 17251.53083797 .00007637 00000-0 31998-3 0 9994 2 40377 099.1199 092.1317 0136180 086.1912 275.4873 15.15781302143636 FIREBIRD FU4 1 40378U 15003C 17251.78601209 .00008336 00000-0 34838-3 0 9999 2 40378 99.1200 92.4810 0136332 85.2465 276.4315 15.15802413143676 GRIFEX 1 40379U 15003D 17251.84133618 .00006984 00000-0 31002-3 0 9998 2 40379 99.1229 89.9732 0142366 93.6454 268.1066 15.13263668143534 NO-84 1 40654U 15025D 17251.32053598 .00014093 00000-0 24887-3 0 00746 2 40654 054.9941 224.7502 0180161 114.6770 247.3240 15.34759591012473 NO-83 1 40655U 15025E 17251.45160644 .00027402 00000-0 38072-3 0 00808 2 40655 054.9799 193.9820 0145273 132.0046 229.3682 15.45416517012548 DEORBITSAIL 1 40719U 15032E 17251.56803456 .00001078 00000-0 16323-3 0 9999 2 40719 097.9698 144.2421 0015129 233.2169 126.7652 14.76136847116625 NUDT-PHONESAT 1 40900U 15049B 17251.53852553 .00007580 00000-0 35633-3 0 9997 2 40900 097.4435 258.2989 0012174 298.3946 061.6061 15.19808025109117 XW-2A 1 40903U 15049E 17251.61178207 .00006631 00000-0 17275-3 0 9994 2 40903 097.4161 278.3377 0013689 331.8449 028.2055 15.39123554110475 XW-2C 1 40906U 15049H 17251.88074400 .00002669 00000-0 14755-3 0 9993 2 40906 97.4564 255.7109 0013526 286.8869 73.0879 15.14681097108903 XW-2D 1 40907U 15049J 17251.52793087 .00002544 00000-0 14038-3 0 9990 2 40907 097.4534 255.1078 0012881 286.1841 073.7973 15.14792490108852 XW-2D 1 40907U 15049J 17251.85821870 .00002607 00000-0 14377-3 0 9994 2 40907 97.4535 255.4315 0012870 284.8969 75.0838 15.14794223108901 LILACSAT-2 1 40908U 15049K 17251.54393912 .00001325 00000-0 78150-4 0 9998 2 40908 097.4642 254.8183 0014532 284.7255 075.2365 15.13205264108774 XW-2F 1 40910U 15049M 17251.74440886 .00004231 00000-0 22493-3 0 9993 2 40910 97.4551 256.1386 0013591 282.1115 77.8595 15.15741925108805 XW-2B 1 40911U 15049N 17251.53616888 .00002501 00000-0 13825-3 0 9995 2 40911 097.4576 255.5334 0012794 286.6159 073.3668 15.14751071108758 DCBB 1 40912U 15049P 17251.82509436 .00004012 00000-0 20100-3 0 9991 2 40912 97.4523 258.2965 0013570 271.0161 214.2025 15.17865694108972 TW-1C 1 40926U 15051B 17251.77923193 .00017096 00000-0 37695-3 0 9996 2 40926 97.2217 290.7192 0010017 215.9059 236.7516 15.43925259109815 TW-1A 1 40928U 15051D 17251.52910067 .00007196 00000-0 20278-3 0 9996 2 40928 097.2194 285.8445 0010561 254.3557 240.7030 15.36675501109495 IO-86 1 40931U 15052B 17250.51624922 .00000692 00000-0 73312-5 0 9994 2 40931 006.0000 005.6929 0013912 328.4205 031.5178 14.76539590105152 GomX-3 1 40949U 98067HA 16292.18357804 .08527750 12374-4 77882-3 0 9992 2 40949 51.6055 106.7696 0006699 286.1344 73.8944 16.38002265 59645 LQSat 1 40958U 15057A 17251.73503087 .00000066 00000-0 18028-4 0 9998 2 40958 97.9729 325.5730 0019058 154.9236 205.2874 14.72983099103418 AO-85 1 40967U 15058D 17251.40308421 .00001021 00000-0 13511-3 0 00846 2 40967 064.7766 326.4443 0176676 047.3595 314.2248 14.75486529012071 ATHENOXAT-1 1 41168U 15077C 17251.43067130 .00003341 00000-0 15109-3 0 9990 2 41168 014.9854 281.1937 0012881 090.2077 120.0338 15.11820884095659 ChubuSat-2 1 41338U 16012B 17251.54613824 .00000964 00000-0 69210-4 0 9999 2 41338 031.0037 302.8266 0013866 164.7714 195.3341 14.99794027085513 ChubuSat-3 1 41339U 16012C 17251.46303418 .00000815 00000-0 57185-4 0 9999 2 41339 31.0109 302.3638 0013510 171.2317 188.8561 14.99994202 85484 Horyu-4 1 41340U 16012D 17251.46628076 .00001521 00000-0 11049-3 0 9994 2 41340 031.0056 299.2659 0014149 179.8866 180.1774 15.00680021085537 OUFTI-1 1 41458U 16025C 17251.84562931 .00004860 00000-0 25984-3 0 9999 2 41458 98.1786 294.2042 0173567 10.7304 349.7559 15.03524950 75143 e-st@r-II 1 41459U 16025D 17251.60963571 .00005254 00000-0 28211-3 0 9993 2 41459 098.1752 293.8798 0173581 011.6372 348.8777 15.03332423075101 AAUSAT4 1 41460U 16025E 17251.88785876 .00006085 00000-0 32503-3 0 9997 2 41460 98.1704 294.3359 0166216 8.7815 351.6322 15.04350452 75173 NODES 1 1 41477U 98067HX 17251.37251005 .00807390 33808-3 11669-2 0 9999 2 41477 051.6178 285.9891 0007099 027.8061 332.3329 16.04694218075305 NODES 2 1 41478U 98067HY 17251.34381543 .00647654 20415-3 11130-2 0 9996 2 41478 051.6230 287.3806 0007047 027.8596 332.2791 16.01785858075280 LO-87 1 41557U 16033B 17251.55577149 .00005532 00000-0 20880-3 0 9990 2 41557 097.4589 331.0663 0015775 075.6274 284.6715 15.27325180071155 NuSat2 1 41558U 16033C 17251.79414897 .00005767 00000-0 21878-3 0 9995 2 41558 97.4616 331.3682 0015186 73.7419 286.5489 15.27147876 71183 Lapan A3 1 41603U 16040E 17251.81886508 .00000241 00000-0 14614-4 0 9992 2 41603 97.4522 312.7704 0014881 137.2002 328.4836 15.19398456 67352 Swayam 1 41607U 16040J 17251.42281524 .00006345 00000-0 28758-3 0 9994 2 41607 097.4527 312.8613 0015390 140.9739 219.2610 15.21093424067251 Pratham 1 41783U 16059A 17251.40433269 .00000202 00000-0 48835-4 0 9997 2 41783 098.1593 311.8835 0032337 259.4270 100.3288 14.62856286050764 AlSat 1N 1 41789U 16059G 17251.73402975 .00000129 00000-0 33758-4 0 9995 2 41789 98.1580 312.8734 0026881 251.6537 108.1730 14.64071365 50837 ScatSat 1 41790U 16059H 17251.86567234 .00000078 00000-0 31091-4 0 9992 2 41790 98.3024 299.1133 0017198 232.0179 127.9463 14.50853446 50396 TY-1 1 41844U 16066D 17251.76699463 .00004048 00000-0 17850-3 0 9996 2 41844 97.4056 257.6710 0014485 310.0351 136.1431 15.22267735 46051 CAS-2T 1 41845U 16066E 17251.90642594 .00001339 00000-0 21378-3 0 9996 2 41845 98.7756 269.5325 0365512 0.0002 0.0994 14.37794925 43529 Pegasus-1 1 41846U 16066F 17251.79356213 .00001389 00000-0 22188-3 0 9999 2 41846 98.7787 269.1363 0369182 1.8655 358.3811 14.37100930 43481 STARS-C 1 41895U 98067KR 17251.49185004 .00108307 00000-0 10109-2 0 9996 2 41895 051.6373 332.4505 0004247 302.4620 057.5965 15.66465152041025 Tancredo 1 1 41931U 98067KT 17251.44421545 .00345828 00000-0 17846-2 0 9991 2 41931 51.6319 324.5483 0004362 321.5803 38.4887 15.79589052 36694 TO-89 1 41932U 98067KU 17251.47449271 .00048927 00000-0 56034-3 0 9994 2 41932 051.6411 336.1316 0003982 228.5780 131.4872 15.61612675036540 AOBA-V3LOX3 1 41935U 98067KX 17251.50641097 .00057057 00000-0 63715-3 0 9999 2 41935 051.6406 335.5873 0003511 236.5690 123.4969 15.62202137036654 OSNSAT 1 41939U 98067KZ 17251.48367747 .00131422 00000-0 10851-2 0 9998 2 41939 51.6371 330.1317 0003725 261.6638 98.3937 15.69384177 35972 EO-88 1 42017U 17008BX 17251.54154003 .00006052 00000-0 25814-3 0 9994 2 42017 097.4873 312.8159 0004980 294.6230 065.4488 15.23288732031178 HAVELSAT 1 42700U 98067LH 17251.78479158 .00045700 00000-0 59867-3 0 9992 2 42700 51.6405 339.6785 0006135 285.0822 74.9491 15.58097647 17968 SOMP2 1 42701U 98067LJ 17251.79495616 .00043943 00000-0 58252-3 0 9995 2 42701 51.6404 339.7502 0006026 284.4914 75.5409 15.57799430 17953 Columbia 1 42702U 98067LK 17251.50510892 .00110757 00000-0 12744-2 0 9992 2 42702 051.6398 340.0605 0006428 289.8444 070.1856 15.61124425017855 PHOENIX 1 42706U 98067LP 17251.47003070 .00051577 00000-0 67983-3 0 9997 2 42706 051.6406 341.3323 0001322 283.5430 076.5415 15.57898431017822 X-CubeSat 1 42707U 98067LQ 17251.47020019 .00050474 00000-0 66424-3 0 9994 2 42707 051.6400 341.3289 0001409 287.2791 072.8047 15.57950122017810 qbee 1 42708U 98067LR 17251.47314522 .00049189 00000-0 64918-3 0 9997 2 42708 051.6400 341.3488 0001422 282.7351 077.3482 15.57884698017771 ZA-AeroSat 1 42713U 98067LU 17251.49727485 .00038060 00000-0 51556-3 0 9991 2 42713 051.6404 341.5112 0001484 213.6747 146.4151 15.57303228017481 LINK 1 42714U 98067LV 17251.47992722 .00062765 00000-0 81523-3 0 9994 2 42714 051.6399 341.3906 0001418 240.2233 119.8618 15.58206979017597 UPSat 1 42716U 98067LX 17251.78550768 .00053021 00000-0 68767-3 0 9990 2 42716 51.6405 339.6852 0004665 291.6098 68.4397 15.58307426 17663 SpaceCube 1 42717U 98067LY 17251.86743100 .00049445 00000-0 65493-3 0 9992 2 42717 51.6401 339.4816 0004533 290.4656 69.5849 15.57777014 16913 Hoopoe 1 42718U 98067LZ 17251.79447948 .00052598 00000-0 68862-3 0 9992 2 42718 51.6401 339.7463 0004575 289.8524 70.1975 15.58061333 16905 Challenger 1 42721U 98067MA 17251.47485427 .00069388 00000-0 88706-3 0 9999 2 42721 51.6398 341.3559 0007135 266.5390 93.4786 15.58560915 16556 NJUST-1 1 42722U 98067MB 17251.84013528 .00037672 00000-0 51465-3 0 9993 2 42722 51.6403 340.0477 0007103 264.9427 95.0754 15.57055875 16609 UNSW-EC0 1 42723U 98067MC 17251.49999346 .00056177 00000-0 74291-3 0 9999 2 42723 51.6408 341.5277 0006958 265.2923 94.7275 15.57749674 16534 DUTHsat 1 42724U 98067MD 17251.54812097 .00059756 00000-0 77098-3 0 9997 2 42724 051.6404 341.0977 0006300 271.3505 088.6766 15.58386295016464 LO-90 1 42725U 98067ME 17251.52027995 .00042285 00000-0 57436-3 0 9994 2 42725 051.6406 341.6626 0006152 268.0819 091.9468 15.57163107016459 nSIGHT1 1 42726U 98067MF 17251.48288231 .00023205 00000-0 33069-3 0 9999 2 42726 051.6411 342.1641 0006073 266.1042 093.9255 15.56188915016457 QBITO 1 42728U 98067MH 17251.50487511 .00049773 00000-0 66515-3 0 9996 2 42728 051.6414 341.5635 0003633 282.5587 077.4999 15.57540746016269 Aalto-2 1 42729U 98067MJ 17251.82549343 .00045634 00000-0 61000-3 0 9990 2 42729 51.6408 339.9520 0003617 283.8767 76.1823 15.57571786 16320 SUSat 1 42730U 98067MK 17251.50907008 .00048898 00000-0 65715-3 0 9995 2 42730 051.6408 341.5870 0003638 279.4679 080.5901 15.57397534016261 i-INSPIRE II 1 42731U 98067ML 17251.81722628 .00053709 00000-0 70605-3 0 9994 2 42731 51.6396 339.8882 0006080 214.0780 145.9822 15.57934715 16360 PolyITAN-2-SAU 1 42732U 98067MM 17251.75862531 .00045791 00000-0 61006-3 0 9993 2 42732 51.6397 340.2458 0006359 212.0300 148.0306 15.57644848 16357 SNUSAT-1 1 42733U 98067MN 17251.57384231 .00044219 00000-0 59408-3 0 9997 2 42733 51.6404 341.2632 0006229 212.7529 147.3077 15.57436610 16328 ExAlta-1 1 42734U 98067MP 17251.49673493 .00050661 00000-0 66818-3 0 9991 2 42734 51.6398 341.4993 0008006 238.2004 121.8209 15.57856511 16262 Aoxiang-1 1 42735U 98067MQ 17251.58084126 .00038039 00000-0 51867-3 0 9994 2 42735 051.6404 341.3145 0007671 259.8389 100.1738 15.57098185017691 BeEagleSat 1 42736U 98067MR 17251.83525333 .00038054 00000-0 51575-3 0 9996 2 42736 51.6401 340.0143 0007509 260.7799 99.2344 15.57261172 16428 Atlantis 1 42737U 98067MS 17251.56674559 .00082246 00000-0 99068-3 0 9993 2 42737 051.6386 340.4651 0007345 266.8686 093.1467 15.60056470016289 CAS-4B 1 42759U 17034B 17251.91023068 .00001486 00000-0 10597-3 0 9991 2 42759 43.0187 187.1144 0007145 158.0847 264.0751 15.08980415 12951 CAS-4A 1 42761U 17034D 17251.90603943 .00001837 00000-0 12755-3 0 9997 2 42761 43.0197 187.0847 0007617 159.4015 262.7680 15.09055601 12946 UCLSat 1 42765U 17036A 17251.84790864 .00005360 00000-0 24514-3 0 9996 2 42765 97.4418 310.6980 0011587 350.2664 9.8345 15.20904866 11938 NIUSat 1 42766U 17036B 17251.51710250 .00004293 00000-0 20421-3 0 9999 2 42766 097.4422 310.2260 0015381 334.1442 025.9023 15.19613418011741 LituanicaSAT 2 1 42768U 17036D 17251.77284603 .00009016 00000-0 42186-3 0 9997 2 42768 97.4420 310.4930 0015380 336.4158 23.6370 15.19873682 11791 InflateSail 1 42770U 17036F 17245.93730135 .99999999 00000-0 73960-1 0 9995 2 42770 097.4262 306.2162 0014869 278.7167 080.9844 16.07641391010932 Aalto 1 1 42775U 17036L 17252.01863874 .00002324 00000-0 11060-3 0 9998 2 42775 97.4410 310.7759 0014234 333.6598 26.3807 15.20088891 11779 URSA MAIOR 1 42776U 17036M 17251.55591499 .00003342 00000-0 15746-3 0 9994 2 42776 097.4424 310.3281 0013485 336.1747 023.8862 15.20131367011705 Max Valier Sat 1 42778U 17036P 17251.60233057 .00004170 00000-0 19350-3 0 9990 2 42778 097.4439 310.4345 0012111 342.8877 017.1948 15.20529299011704 Pegasus 1 42784U 17036V 17251.32827700 .00004579 00000-0 21073-3 0 9998 2 42784 097.4424 310.1714 0012185 351.5658 008.5371 15.20757975011660 NUDATSat 1 42787U 17036Y 17251.45344433 .00007480 00000-0 34034-3 0 9997 2 42787 97.4421 310.3094 0011760 351.6330 8.4708 15.20944033 11520 SUCHAI 1 1 42788U 17036Z 17251.45491393 .00005850 00000-0 26744-3 0 9994 2 42788 097.4422 310.3068 0011785 351.6500 008.4537 15.20878508011757 SKCUBE 1 42789U 17036AA 17251.45293304 .00005597 00000-0 25580-3 0 9992 2 42789 097.4420 310.3086 0011605 351.7552 008.3491 15.20908869011678 VZLUSAT 1 1 42790U 17036AB 17251.44887357 .00006317 00000-0 28741-3 0 9993 2 42790 097.4418 310.3116 0011334 352.3958 007.7104 15.21011416011675 VENTA 1 1 42791U 17036AC 17251.44766328 .00005723 00000-0 26071-3 0 9992 2 42791 097.4420 310.3152 0011240 352.9062 007.2013 15.21010321011664 Robusta 1B 1 42792U 17036AD 17251.44669475 .00005804 00000-0 26415-3 0 9990 2 42792 97.4418 310.3139 0011216 353.3701 6.7385 15.21036865 11684 D-SAT 1 42794U 17036AF 17251.17064084 .00003247 00000-0 14845-3 0 9990 2 42794 097.4417 310.0680 0009508 353.9944 006.1176 15.21230777011634 BIRD-J 1 42820U 98067MU 17251.50642047 .00041747 00000-0 58013-3 0 9993 2 42820 51.6406 342.3167 0002199 196.9222 163.1697 15.56571694 9829 BIRD-G 1 42821U 98067MV 17251.50847843 .00042194 00000-0 58790-3 0 9994 2 42821 051.6404 342.3302 0002275 198.9967 161.0940 15.56495236009805 BIRD-M 1 42822U 98067MW 17251.50926449 .00044272 00000-0 61644-3 0 9996 2 42822 051.6408 342.3349 0002301 203.8181 156.2705 15.56491596009827 BIRD-B 1 42823U 98067MX 17251.51091353 .00043118 00000-0 60090-3 0 9997 2 42823 051.6409 342.3486 0005846 220.8401 139.2154 15.56464985009801 BIRD-N 1 42824U 98067MY 17251.51321255 .00042681 00000-0 59639-3 0 9996 2 42824 51.6411 342.3640 0005689 221.9602 138.0954 15.56398731 9795 TechnoSat 1 42829U 17042E 17251.58696110 .00000618 00000-0 68387-4 0 9992 2 42829 097.6089 159.2648 0015718 058.9429 301.3330 14.90658448008370 Mayak 1 42830U 17042F 17251.58514027 .00002373 00000-0 24646-3 0 9999 2 42830 097.6094 159.2716 0016147 056.1955 304.0799 14.90750489008372 OBJECT MZ 1 42910U 98067MZ 17251.48362176 .00036473 00000-0 52592-3 0 9998 2 42910 051.6393 342.9116 0007065 243.3554 116.6714 15.55610619003407 OBJECT NA 1 42911U 98067NA 17251.86972143 .00039921 00000-0 57438-3 0 9997 2 42911 51.6409 340.9937 0006558 240.7468 119.2868 15.55630975 3446 OBJECT NB 1 42912U 98067NB 17251.55036828 .00032474 00000-0 47258-3 0 9990 2 42912 051.6379 342.6023 0006184 253.7192 106.3119 15.55424655003410 OBJECT NC 1 42913U 98067NC 17251.80528794 .00060841 00000-0 86334-3 0 9994 2 42913 51.6395 341.3083 0005531 269.3903 90.6455 15.55828855 3417 OBJECT ND 1 42914U 98067ND 17246.73203046 .00019951 00000-0 29657-3 0 9992 2 42914 51.6425 6.6762 0006180 224.9172 134.5428 15.55140881 2663 /EX